Dewpoint
62 62 61 62 61 61 61 62 62 62 62 63 63 64 65 66 67 68 68 69 69 69 70 69 70 70 70 70 70 70 70 70 70 70 70 71 71 71 71 71 71 71 72 71 71 70 69 70 69 70 71 71 72 72 73 73 73 73 72 72 72 71 70
60 62 62 62 61 61 61 61 62 62 62 62 63 64 64 65 66 67 67 69 69 70 70 70 70 70 70 70 70 71 71 71 72 72 72 72 72 72 72 71 71 71 72 72 72 71 70 69 69 69 70 71 71 72 72 72 73 73 72 72 71 71 71
57 58 59 60 61 61 60 61 61 62 62 62 63 63 64 65 66 67 67 67 68 69 70 70 70 71 71 71 71 72 72 72 72 72 72 72 72 72 72 72 72 72 72 71 71 71 71 70 70 69 70 70 70 71 71 72 72 72 72 72 72 71 71
57 57 58 59 60 61 61 60 63 62 62 62 63 63 64 64 65 67 67 67 68 68 68 69 70 70 71 71 71 71 71 72 72 72 72 72 72 72 72 72 72 72 72 71 71 71 71 71 71 71 72 70 70 70 70 71 71 71 72 72 72 72 72
57 57 58 58 58 59 60 60 60 61 61 62 63 64 64 64 65 66 66 67 68 67 68 68 69 70 70 71 71 71 71 71 72 72 72 72 72 72 71 71 71 71 71 72 72 72 72 73 72 71 71 71 70 70 70 70 70 71 72 72 72 71 71
56 57 57 58 58 59 60 60 61 61 61 62 62 62 63 64 64 64 65 66 66 68 67 67 67 68 69 70 70 70 71 71 71 72 72 72 72 72 71 71 71 71 71 71 72 72 72 73 72 71 70 70 70 69 69 70 70 70 71 72 71 72 71
57 57 57 58 58 59 60 60 61 61 62 62 63 64 66 64 63 64 65 65 66 66 66 66 66 67 68 69 70 70 70 70 70 71 71 72 72 72 72 71 72 71 72 72 71 72 71 71 70 70 70 70 70 69 70 70 70 71 71 71 72 72 72
57 57 58 58 58 58 59 60 61 61 62 63 62 62 62 63 63 63 63 64 65 65 66 66 66 66 67 68 69 69 69 69 70 70 71 71 72 72 72 72 71 72 72 70 71 71 70 70 71 71 71 70 70 71 71 71 71 71 71 71 71 71 71
58 58 58 58 59 60 60 60 61 61 62 61 60 61 62 62 62 62 63 63 64 64 64 65 66 66 67 68 68 69 69 69 69 70 70 71 71 72 72 72 72 72 72 72 71 71 71 71 71 71 72 71 71 70 70 71 71 71 72 70 70 70 70
57 58 58 59 59 60 60 60 60 60 59 59 59 60 60 61 61 62 62 63 63 63 64 64 65 67 67 67 67 68 68 68 69 69 70 70 71 71 72 72 72 72 72 71 71 71 72 72 71 71 72 72 72 70 71 71 71 71 71 70 70 70 70
57 58 57 56 56 57 59 58 57 58 58 58 59 59 60 60 60 61 61 62 62 63 63 64 65 65 66 66 66 67 67 68 69 69 69 69 70 71 72 72 73 72 72 72 71 71 71 72 72 72 72 72 71 71 71 71 71 71 71 71 70 70 70
55 55 55 55 55 56 56 57 58 58 57 58 58 59 60 60 60 60 61 61 62 62 62 63 64 65 65 65 65 66 66 67 68 68 68 69 70 71 71 72 72 72 72 71 71 72 72 72 72 72 72 72 72 72 72 72 72 71 71 71 71 71 70
56 57 55 55 56 55 56 55 56 56 57 57 58 59 59 60 60 60 60 60 61 62 62 63 64 64 64 64 65 65 66 67 67 68 69 69 70 71 71 71 71 71 69 70 71 71 71 72 71 72 72 72 73 73 72 72 72 72 71 71 71 71 70
61 53 53 54 53 53 53 54 56 56 57 58 58 59 59 59 59 60 60 60 61 61 62 62 63 63 63 63 64 64 65 66 67 68 69 69 70 70 71 71 71 71 69 70 70 71 71 71 71 71 72 73 73 73 73 73 72 72 72 72 71 71 70
52 53 53 53 53 53 53 53 55 56 57 57 58 57 57 58 59 59 60 60 60 61 61 62 62 62 63 63 63 64 65 66 67 68 69 69 69 69 70 70 70 70 69 69 70 71 72 71 71 71 71 72 73 73 73 73 72 72 72 71 71 71 70
53 52 52 52 52 53 54 54 55 56 57 57 56 56 57 58 58 59 59 59 60 60 61 62 62 62 62 62 63 64 65 66 67 68 68 68 68 69 69 70 70 70 69 69 70 70 71 72 72 72 71 72 72 72 72 72 72 73 73 72 71 71 71
53 52 52 52 53 53 53 54 55 56 55 55 56 56 57 57 58 58 59 60 60 60 61 62 62 62 62 62 63 64 65 66 66 67 67 68 68 68 69 69 70 70 69 69 69 69 70 71 71 71 72 72 72 72 72 72 72 73 70 69 71 72 71
52 52 52 52 52 53 54 54 54 54 55 56 56 56 57 57 58 59 59 59 60 60 62 62 62 61 61 62 63 64 64 65 66 66 67 67 67 68 68 69 69 69 69 69 70 70 70 70 70 70 71 71 72 72 72 72 73 69 69 69 69 71 72
52 52 51 51 53 55 54 53 54 55 55 56 56 57 57 58 59 59 59 59 60 61 61 61 61 61 61 62 63 63 63 64 65 66 66 67 67 67 68 68 68 68 68 68 69 70 70 70 71 70 71 71 71 71 71 71 71 67 67 68 68 68 73
53 52 51 52 52 52 53 54 54 56 56 56 57 57 59 61 60 59 60 60 61 60 60 61 61 61 61 62 62 63 63 64 65 65 66 66 67 67 68 68 68 68 69 69 70 70 70 70 70 70 71 71 71 71 71 71 70 67 66 66 67 67 70
51 52 52 51 52 52 53 54 54 55 56 56 58 60 59 58 59 59 59 60 60 60 60 61 61 61 61 62 62 63 63 64 65 65 65 66 66 67 67 67 67 67 68 69 69 69 69 69 69 69 70 71 71 71 71 70 68 66 66 65 65 66 71
51 51 51 52 52 52 53 53 54 55 56 59 59 59 58 58 59 59 59 60 60 61 61 61 61 61 61 62 62 63 63 64 64 64 65 65 66 66 67 67 67 67 68 68 69 69 69 69 69 69 69 70 71 71 71 71 68 66 65 64 64 66 70
51 51 51 52 53 53 54 55 55 56 59 59 59 58 58 59 59 59 59 60 60 61 61 61 61 61 62 62 62 63 63 64 64 64 65 65 66 66 66 66 67 67 68 68 68 68 68 67 68 69 70 70 70 69 69 69 68 65 64 63 63 66 69
53 53 52 53 54 54 55 56 57 59 60 59 59 59 59 59 59 60 60 60 61 61 61 61 61 61 62 62 62 63 63 64 64 64 65 65 65 65 66 66 67 66 67 67 67 67 68 68 68 69 69 69 69 69 69 69 69 65 63 62 62 67 69
52 52 53 54 54 55 55 57 59 61 61 59 59 59 59 59 60 60 60 61 60 61 60 61 61 62 62 62 62 63 63 64 64 65 65 65 65 65 65 66 66 67 67 67 68 67 68 68 68 69 69 69 69 70 70 70 70 64 62 62 62 66 69
53 53 54 55 55 55 57 62 59 59 59 59 59 59 59 60 60 60 61 60 60 60 60 61 61 62 62 62 62 63 64 64 65 65 65 65 65 65 66 66 67 67 67 67 67 67 67 68 68 68 68 69 69 69 70 70 70 69 62 61 60 62 68
53 54 54 55 56 62 59 59 59 59 59 59 60 60 60 60 60 60 60 61 60 60 61 61 62 62 62 62 63 63 63 64 64 64 65 65 65 66 66 67 66 66 66 66 66 67 67 68 68 68 68 69 69 70 70 70 69 69 63 60 60 61 66
53 54 55 58 60 60 58 59 60 60 59 60 60 61 60 60 60 60 60 60 59 60 61 61 62 62 62 62 62 63 63 64 64 65 65 65 65 65 65 66 66 66 66 66 66 66 66 67 67 68 68 69 69 69 69 70 71 70 66 62 59 59 60
52 53 54 56 57 59 60 59 59 59 59 60 60 60 60 60 60 60 60 60 60 60 61 61 62 62 62 62 63 63 64 64 64 64 64 64 65 65 64 65 66 66 66 66 65 66 66 66 67 67 67 67 67 67 67 68 68 69 70 65 60 58 58
54 55 56 56 57 58 61 59 59 59 59 60 60 60 60 60 60 60 60 60 61 61 62 62 62 62 62 62 63 63 63 64 64 64 64 64 64 64 64 65 65 65 65 65 65 65 66 66 67 67 67 66 66 66 66 67 67 68 69 67 60 58 57
53 55 56 57 57 59 60 59 59 59 60 60 60 60 61 61 60 60 60 60 61 61 61 61 61 62 62 62 62 62 63 63 64 63 63 64 64 64 64 64 64 64 65 65 65 65 65 66 66 66 66 66 65 66 66 67 67 66 67 66 65 58 56
56 57 57 58 58 58 59 59 59 59 59 60 60 60 61 61 60 60 60 61 61 61 61 61 61 62 62 62 62 63 62 63 63 63 63 64 65 65 65 64 65 64 65 65 65 66 65 65 66 66 66 66 66 66 66 66 65 65 65 67 68 65 60
55 56 57 57 58 59 59 59 59 59 60 60 60 60 60 60 60 61 61 61 61 61 61 61 61 62 62 62 62 62 62 62 62 64 64 65 65 65 64 65 64 64 65 65 65 65 66 65 65 65 66 66 66 66 66 66 65 65 64 65 66 67 65
56 57 57 58 58 59 59 59 59 59 60 60 60 60 60 60 60 61 61 61 61 61 61 61 61 61 61 61 61 62 62 62 64 64 64 64 64 64 64 64 64 64 64 65 65 65 65 65 66 65 65 66 66 66 66 66 66 65 64 64 65 66 65
56 57 57 57 58 59 59 59 60 59 60 60 60 60 60 60 60 61 61 60 61 61 60 60 61 61 61 61 62 62 63 63 63 63 64 64 64 64 64 63 64 64 65 66 67 66 66 66 66 66 66 66 66 66 65 65 65 66 62 65 61 64 66
56 57 57 58 59 59 59 60 60 60 60 60 60 60 60 60 61 61 61 60 61 61 60 61 61 61 61 61 61 61 61 62 63 63 64 64 63 63 64 64 62 62 64 64 65 63 58 56 63 63 61 61 63 65 66 66 66 60 55 53 52 54 56
56 57 58 58 58 58 58 59 61 61 60 60 61 60 60 60 61 60 60 60 60 60 60 60 60 61 60 61 60 61 61 62 62 63 63 63 63 63 63 63 64 54 53 56 62 58 53 50 49 49 53 59 61 61 58 58 54 49 48 49 48 48 50
57 57 58 59 58 58 59 59 60 60 60 60 60 60 60 60 60 60 60 60 60 60 60 60 60 60 60 60 61 62 62 62 62 62 63 63 63 62 62 62 62 64 55 50 53 53 50 48 46 45 46 49 53 60 61 58 53 45 45 46 46 47 47